User: anonymous   Login
Location: Stonelick Lake State Park
(39.2170°N, 84.0850°W)
Time: 08:31:42
(UTC-04:00)
Language:

Abrixas rocket - Orbit

View from above orbital plane
View from above orbital plane
View from above satellite
View from above satellite

Ground track
Ground track

The orbit data is extracted from the following two-line orbital elements,

1 25723U 99022C   15114.15044060  .00019520  00000-0  49487-3 0  9995
2 25723 048.4221 351.8005 0015000 241.6115 254.9118 15.39497271884918
Epoch (UTC): 24 April 2015 03:36:38
Eccentricity: 0.0015000
inclination: 48.4221°
perigee height: 437 km
apogee height: 458 km
right ascension of ascending node: 351.8005°
argument of perigee: 241.6115°
revolutions per day: 15.39497271
mean anomaly at epoch: 254.9118°
orbit number at epoch: 88491

The dashed part of the orbit path shows where the satellite is in the earth's shadow,  

DLR